Tracking 31027 objects as of 19-Jul-2025
HD Live streaming from Space Station
objects crossing your sky now

STARLINK-31572

Track STARLINK-31572 now!
10-day predictions
STARLINK-31572 is classified as:


NORAD ID: 59333
Int'l Code: 2024-057P
Perigee: 489.3 km
Apogee: 491.1 km
Inclination: 43.0 °
Period: 94.3 minutes
Semi major axis: 6861 km
RCS: Unknown
Launch date: March 25, 2024
Source: United States (US)
Launch site: AIR FORCE EASTERN TEST RANGE (AFETR)
Your satellite tracking list
NOAA 16 DEB
Track 1 satellite(s)




NASA's NSSDC Master Catalog

Two Line Element Set (TLE):
1 59333U 24057P   25199.38100289  .00000197  00000-0  16706-4 0  9999
2 59333  43.0054  81.6552 0001358 268.5282  91.5414 15.27576006 73876
Source of the keplerian elements: AFSPC